Theta_e
305 303 303 304 305 308 309 308 308 310 309 308 307 307 307 308 307 306 308 309 310 310 312 311 311 311 312 313 318 336 334 333 332 333 335 331 331 327 326 325 322 316 306 302
304 304 304 304 304 305 306 306 307 307 309 306 307 307 307 307 306 308 308 309 310 311 310 310 310 309 309 311 314 334 335 332 331 332 334 332 327 326 325 324 319 307 302 301
304 305 306 305 305 306 305 305 306 307 309 307 307 310 309 309 308 309 310 311 312 312 311 311 311 309 309 310 314 330 334 333 331 333 333 328 325 324 323 321 311 302 301 300
306 306 305 307 307 306 306 306 307 307 309 310 309 313 310 310 310 308 310 309 312 313 312 311 311 310 310 310 314 320 332 332 331 331 329 328 325 323 322 319 305 301 300 301
307 307 307 308 308 307 310 306 308 308 308 306 309 306 311 310 312 311 308 309 311 312 313 312 311 311 310 311 313 319 330 331 331 328 327 325 324 323 321 310 301 300 301 302
306 306 307 308 307 304 308 310 311 308 304 306 311 310 313 312 311 311 309 312 312 311 311 312 311 311 310 310 313 319 328 329 328 324 323 321 323 320 313 303 300 301 302 302
305 305 307 306 307 307 309 311 314 314 312 314 308 308 312 310 309 309 309 311 312 312 311 310 310 309 308 311 315 319 324 325 324 322 322 317 318 313 307 301 301 302 302 303
307 305 306 306 305 309 308 311 314 314 314 311 305 312 311 308 307 309 310 312 312 311 310 310 309 308 307 308 312 316 319 320 318 317 314 314 307 303 301 301 302 302 302 301
301 305 303 304 303 306 309 309 307 311 309 313 311 308 309 307 305 303 303 304 308 309 308 307 307 307 306 308 311 313 314 314 313 310 308 309 302 301 301 301 302 302 300 300
298 298 302 303 304 305 307 308 309 310 312 314 313 309 312 306 304 303 302 302 302 303 304 304 305 305 306 307 309 309 309 308 307 304 303 301 301 301 301 301 301 300 299 299
296 296 298 302 303 304 304 306 307 309 310 313 316 308 303 301 302 301 301 301 302 303 303 304 304 304 305 306 305 305 305 304 304 301 301 301 301 300 301 301 299 299 299 298
294 297 296 299 297 300 302 303 305 307 307 309 311 311 305 307 305 304 303 300 302 303 303 303 303 304 304 304 303 303 303 302 301 300 300 300 300 301 300 299 299 298 298 298
294 290 293 292 293 294 296 295 298 300 306 308 309 312 305 305 303 303 303 303 301 302 303 303 303 303 303 303 303 302 301 300 300 300 300 299 300 300 299 298 298 298 297 297
292 292 291 291 293 292 293 296 294 294 301 304 306 306 305 305 303 303 302 302 304 301 301 302 302 303 303 302 302 302 301 300 300 299 299 300 300 299 298 298 298 297 297 297
289 284 289 289 292 290 294 292 292 292 294 301 301 301 301 300 301 302 303 303 303 304 302 302 301 302 302 302 302 301 300 300 300 299 299 300 298 298 298 298 297 297 297 296
290 287 287 287 288 291 291 292 291 294 298 300 301 301 296 295 295 300 303 304 304 303 304 303 304 302 302 301 301 301 301 300 299 298 299 298 298 298 297 297 297 297 297 296
287 289 281 287 288 285 286 288 293 295 294 297 298 296 295 295 295 296 296 296 298 299 301 303 303 304 302 301 301 301 301 300 298 298 299 298 298 297 297 297 297 297 296 296
288 286 289 287 279 285 289 289 291 292 293 292 293 293 292 291 293 294 293 294 295 296 296 299 301 302 303 302 301 301 300 300 298 298 299 298 299 298 297 297 297 296 295 294
289 289 288 287 284 288 288 290 291 291 293 291 291 291 290 290 291 296 292 291 293 294 295 296 297 301 301 303 301 301 300 299 298 298 299 300 300 298 297 297 297 296 294 294
287 287 289 285 285 287 287 290 290 290 291 290 290 289 289 289 289 290 290 290 289 292 293 295 296 296 299 301 302 302 300 301 301 303 302 301 299 297 296 296 296 295 294 293
277 271 280 278 277 280 288 289 289 289 291 290 289 290 288 289 290 291 289 289 288 291 293 293 295 296 296 297 301 301 304 304 302 301 304 303 298 297 296 296 295 294 293 293
282 277 281 270 272 281 288 288 288 288 288 288 289 289 289 288 289 290 289 289 288 289 292 293 294 295 296 296 296 300 300 302 300 299 299 302 299 298 296 295 294 294 294 293
283 285 282 282 285 288 289 288 289 289 288 288 288 288 288 288 290 288 289 289 288 288 292 292 292 294 295 296 296 296 299 300 299 298 299 301 300 297 295 294 294 295 294 293
286 287 286 287 288 288 288 288 288 288 288 288 288 288 288 289 288 288 288 288 288 288 288 291 292 293 295 296 296 296 296 297 299 299 299 301 298 296 295 294 295 295 294 293
288 286 287 287 287 288 288 288 288 288 288 288 288 288 288 288 288 288 288 288 288 288 288 290 291 292 294 295 296 296 296 296 297 298 299 301 298 296 294 294 295 295 294 292
288 287 287 287 288 287 288 288 288 288 288 288 288 288 288 288 288 288 288 288 288 289 289 291 291 292 295 295 296 296 296 296 296 297 298 298 297 295 294 294 295 294 293 291
Wind_Speed
2 2 6 10 12 6 4 5 6 3 3 5 8 14 16 17 15 14 21 24 26 30 31 29 31 33 35 37 32 40 41 36 34 39 38 35 30 24 22 21 20 18 16 15
5 6 10 6 7 8 12 10 10 7 3 6 7 14 11 12 12 24 27 31 30 28 26 28 28 31 34 38 37 40 44 40 37 38 39 34 30 26 22 23 21 18 16 16
8 8 5 3 8 10 11 13 4 11 2 4 4 16 10 10 20 23 32 36 36 36 33 33 32 32 32 38 40 41 44 43 39 38 39 34 31 28 26 24 23 19 17 16
8 7 10 15 11 5 12 7 12 11 3 7 3 12 9 6 17 13 28 32 41 42 40 38 37 38 38 38 39 41 44 44 41 40 37 35 33 28 28 25 22 19 17 15
7 9 14 12 6 7 7 7 6 6 5 3 6 1 5 6 12 10 13 29 41 46 46 45 44 44 42 39 40 41 44 44 42 39 36 35 32 30 28 25 22 19 16 14
14 8 4 6 11 3 4 1 9 6 2 4 24 11 21 11 9 6 8 26 30 35 42 43 43 43 44 42 42 42 43 42 41 40 35 36 30 28 28 25 23 19 17 14
14 9 5 4 5 3 3 2 2 5 4 7 4 8 21 4 4 6 9 21 27 31 32 37 40 44 43 42 42 41 41 41 39 37 35 32 28 29 26 24 21 19 16 14
7 7 8 7 3 2 2 4 5 6 4 5 3 8 12 4 11 23 26 28 19 22 28 33 37 43 40 39 40 41 41 39 37 36 35 33 30 28 24 21 19 17 15 13
6 6 14 12 4 6 1 5 4 6 3 3 4 6 10 6 7 9 11 11 22 20 26 33 35 36 36 37 40 39 37 36 36 36 34 32 31 27 24 21 19 18 15 12
5 13 5 5 4 5 3 3 3 3 4 6 3 4 5 15 16 14 10 6 6 13 21 26 29 31 31 34 36 36 34 34 35 34 33 33 29 25 23 22 20 18 14 12
9 5 11 6 2 1 3 3 5 4 4 4 2 2 6 7 11 18 12 10 4 10 14 19 26 29 31 35 36 35 34 34 35 34 31 29 28 26 24 22 19 16 14 11
5 6 8 16 18 11 6 11 11 5 4 4 5 7 4 11 15 23 27 21 6 8 12 16 22 27 33 35 34 32 31 33 33 32 30 28 27 26 24 21 18 16 14 12
8 4 6 12 6 8 5 11 15 19 3 8 7 2 3 9 16 27 29 36 21 9 11 13 18 25 29 30 29 30 32 32 31 30 28 28 27 25 23 20 18 16 14 12
2 2 6 8 12 9 17 16 15 10 7 6 7 11 9 14 14 14 26 29 31 11 8 12 17 22 25 27 28 31 32 31 30 29 28 28 26 24 22 20 18 16 15 13
1 6 11 14 12 15 17 18 21 19 16 8 10 15 18 18 16 17 17 13 18 10 12 9 15 20 22 27 29 29 30 31 30 29 29 27 25 23 22 20 18 17 15 11
3 8 8 14 17 13 19 15 21 17 7 9 12 11 16 23 31 24 25 12 14 13 13 18 10 19 23 25 28 29 30 30 29 30 29 27 26 24 22 20 19 17 14 12
6 7 1 15 9 5 6 8 10 13 5 7 5 8 15 20 22 20 27 30 27 28 25 19 21 14 24 27 26 30 30 29 29 30 28 28 27 24 23 21 19 16 14 12
8 4 4 8 3 6 6 7 9 7 6 7 7 11 13 15 22 24 34 32 31 35 33 22 21 22 18 26 27 27 28 29 30 31 30 28 25 23 23 23 20 18 14 12
11 4 4 2 3 5 7 4 3 5 8 8 4 9 13 22 24 8 33 35 33 33 30 27 19 15 29 21 27 28 30 27 29 29 31 27 26 28 27 26 22 18 15 13
2 4 4 4 3 4 6 6 11 6 10 5 5 11 10 21 11 10 30 31 34 34 33 28 23 20 11 25 29 27 29 33 35 32 33 27 30 29 29 26 22 19 17 14
4 4 4 5 4 8 9 7 8 5 5 20 16 16 16 5 12 23 28 29 31 32 33 32 26 21 17 11 20 38 34 37 38 38 35 34 36 31 29 27 25 21 17 15
5 2 6 2 2 8 14 8 5 8 19 23 25 21 26 28 27 23 28 30 32 34 32 32 31 25 19 16 14 19 38 43 44 42 39 32 36 34 33 30 27 23 19 16
4 8 4 8 7 14 21 23 35 34 29 31 29 33 29 32 27 31 27 31 34 34 30 31 33 32 22 18 17 19 21 29 34 37 36 34 39 38 36 34 30 25 21 17
6 16 7 11 15 20 30 34 34 32 31 33 29 23 27 29 34 36 35 33 39 39 36 33 32 32 28 20 22 20 18 21 27 32 38 39 41 41 39 36 30 25 22 19
13 4 15 16 22 28 32 31 34 30 29 31 31 29 26 32 36 39 40 37 37 36 34 33 31 32 31 26 24 23 20 22 26 32 44 47 45 45 43 38 32 27 19 17
21 19 11 14 30 21 27 35 36 33 32 36 34 36 35 30 28 31 33 34 31 30 31 31 33 32 30 29 26 26 22 23 27 32 39 44 47 48 44 38 32 25 22 19
Wind_Direction
274 156 213 216 224 243 250 244 246 246 218 193 235 244 250 262 254 249 238 236 235 231 230 227 225 223 222 220 213 211 207 207 212 206 202 199 203 203 220 221 222 230 236 239
324 264 248 235 247 260 268 273 262 284 274 203 268 262 251 244 237 233 239 243 241 240 229 218 215 214 219 217 214 210 209 209 213 214 206 211 204 208 224 224 224 226 230 231
250 269 352 198 255 255 252 248 259 247 286 255 339 279 246 248 238 241 243 245 244 238 230 217 212 212 212 211 210 208 210 211 211 212 209 202 201 201 206 215 220 221 223 231
280 334 316 288 265 224 261 215 238 240 151 245 164 274 220 216 236 226 236 230 236 237 234 228 219 214 213 212 212 212 209 209 211 211 209 216 205 211 221 221 217 216 222 231
259 295 304 310 297 258 258 327 272 229 198 94 224 307 254 196 239 235 235 232 236 238 235 228 224 220 214 213 214 213 208 208 208 211 210 212 219 216 215 212 212 214 221 225
257 283 264 231 234 246 307 262 314 347 82 207 238 195 273 233 232 236 240 246 243 239 236 233 226 220 214 209 211 212 208 207 211 218 216 209 211 209 211 210 209 212 215 216
303 276 271 270 270 253 143 102 251 223 206 238 163 177 240 255 286 263 260 266 253 245 236 227 221 211 206 204 204 206 205 204 207 210 214 203 212 215 212 211 210 210 209 207
328 329 359 345 350 160 279 262 228 243 206 241 139 211 242 223 261 262 260 258 265 252 233 214 208 202 203 204 202 202 202 202 202 204 203 205 206 206 205 207 206 203 201 203
301 277 325 288 249 147 97 248 321 298 242 252 198 277 298 2 326 320 306 277 255 242 220 207 202 202 203 201 199 198 197 200 200 197 200 202 200 201 202 199 198 197 196 199
311 303 295 296 330 244 199 146 300 263 251 254 241 280 264 358 337 325 304 286 244 216 199 195 196 197 200 201 196 195 197 200 199 196 196 195 195 196 196 194 193 191 193 195
296 235 292 324 257 284 320 280 231 244 258 302 295 237 350 357 352 348 322 310 246 181 185 191 196 200 201 193 190 192 196 199 195 192 189 190 191 190 189 188 187 187 188 188
278 301 289 279 281 297 271 266 259 265 251 286 289 261 341 19 11 7 4 343 256 218 208 205 202 200 192 189 192 196 196 194 191 188 189 189 188 186 186 184 184 183 184 184
337 320 317 330 1 31 348 322 343 331 253 240 243 301 311 33 14 3 352 349 328 248 207 201 197 194 192 195 198 198 195 191 189 189 189 187 187 185 183 183 183 182 183 182
340 274 279 276 283 299 296 319 318 318 297 328 277 304 319 330 332 356 334 338 337 315 241 208 204 204 206 208 204 196 192 191 192 192 191 189 187 185 184 183 183 183 182 184
161 234 285 268 260 285 272 295 311 303 270 264 296 308 323 323 310 303 285 300 322 344 313 275 245 222 217 210 202 198 196 194 196 195 192 191 188 186 185 185 184 186 186 184
223 273 271 286 286 265 283 285 289 289 300 283 286 274 351 339 356 330 299 263 291 240 277 237 269 250 226 216 209 205 202 201 201 198 194 191 191 191 188 189 189 189 190 192
266 261 253 272 286 309 294 245 257 276 28 321 356 353 350 352 342 353 42 23 12 344 309 262 249 271 241 228 218 216 210 207 205 201 196 195 196 193 195 193 192 195 198 202
245 224 248 271 30 271 252 278 287 358 46 27 32 1 351 345 336 26 24 5 352 359 356 338 270 253 261 238 231 223 221 217 210 203 200 197 200 203 202 199 197 198 203 207
218 234 256 250 213 288 313 358 351 345 321 338 327 341 339 345 347 328 354 353 349 347 343 351 350 269 251 259 242 231 227 223 215 213 205 208 214 210 204 202 198 199 204 212
113 245 229 325 229 265 250 272 333 276 282 307 323 331 336 345 339 322 331 337 338 341 343 343 344 350 297 247 246 240 235 228 215 220 220 220 222 216 211 204 199 201 206 208
328 339 197 270 253 285 261 271 325 265 301 322 321 304 318 295 290 304 321 324 329 336 340 341 336 338 344 302 233 231 230 239 242 223 213 222 219 216 212 205 201 202 203 205
190 157 270 70 56 290 262 277 246 284 305 307 305 288 305 301 302 307 316 319 325 328 331 336 332 328 333 332 294 245 230 234 237 227 214 218 224 218 211 205 201 200 202 201
254 193 211 184 236 261 268 277 285 290 289 298 294 299 305 305 299 310 308 311 314 317 320 327 326 321 318 317 308 280 260 245 237 230 215 219 225 219 209 204 202 202 203 207
251 239 243 266 260 264 267 276 280 282 288 291 293 293 298 295 303 306 303 303 305 306 308 315 317 317 309 307 298 289 271 255 239 226 217 221 222 214 208 204 204 207 209 209
250 204 256 271 274 277 274 272 275 285 288 288 286 285 281 290 292 298 298 299 303 303 304 306 310 312 304 296 285 281 270 251 239 225 220 221 217 212 207 204 204 208 211 214
248 250 251 261 271 273 277 285 287 286 286 289 288 287 290 287 285 293 292 294 298 300 304 300 301 306 297 287 280 275 265 248 237 228 223 219 213 209 206 202 201 203 208 208